Regional Weather Roundup
Issued by NWS

Home | Current Version | Previous Version | Graphics & Text | Print | Product List | Glossary On
Versions: 1 2 3 4 5 6 7 8 9 10 11 12 13 14 15 16 17 18 19 20 21 22 23 24 25 26 27 28 29 30 31 32 33 34 35 36 37 38 39 40 41 42 43 44 45 46 47 48 49 50
000
ASUS43 KLOT 162108
RWRIL

ILLINOIS REGIONAL WEATHER ROUNDUP
NATIONAL WEATHER SERVICE CHICAGO/ROMEOVILLE IL
400 PM CDT WED AUG 16 2017

NOTE: "FAIR" INDICATES FEW OR NO CLOUDS BELOW 12,000 FEET WITH NO
SIGNIFICANT WEATHER AND/OR OBSTRUCTIONS TO VISIBILITY.

* THESE STATIONS ARE NOT UNDER NWS QUALITY CONTROL. THEY ALSO MAY NOT
  REPORT WEATHER SUCH AS PRECIPITATION OR FOG.

ILZ001-002-007-009-015-016-024-162200-
NORTHWEST ILLINOIS

CITY           SKY/WX    TMP DP  RH WIND       PRES   REMARKS
MOLINE         PTSUNNY   83  71  67 S14       29.78F HX  87
STERLING*      CLOUDY    79  75  87 SE10      29.84F HX  83
SAVANNA*       PTSUNNY   78  75  90 SE10      29.83F HX  80
$$

ILZ003-004-008-010-011-017-018-162200-
NORTH CENTRAL ILLINOIS

CITY           SKY/WX    TMP DP  RH WIND       PRES   REMARKS
ROCKFORD       HVY RAIN  77  71  82 E6        29.89F VSB 1
FREEPORT*      CLOUDY    79  70  74 SE12      29.87F HX  81
ROCHELLE*      LGT RAIN  77  72  85 S12G17    29.89S
DE KALB*       RAIN      78  73  85 S17G23    29.91S HX  80
PERU*          CLOUDY    78  73  83 SE8       29.87F HX  81
$$

ILZ005-006-012>014-019>023-162200-
NORTHEAST ILLINOIS

CITY           SKY/WX    TMP DP  RH WIND       PRES   REMARKS
CHICAGO-OHARE  PTSUNNY   87  68  52 E16       29.88F HX  90
CHICAGO-MIDWAY PTSUNNY   89  67  47 S10G18    29.88F HX  92
AURORA         LGT RAIN  81  71  71 S8G21     29.90F HX  85
LANSING*       MOSUNNY   86  64  47 S14       29.91F HX  87
JOLIET*        RAIN      75  73  94 SE5       29.91S
WAUKEGAN       SUNNY     77  70  79 E9        29.90F
DUPAGE AIRPORT PTSUNNY   85  71  63 S14       29.88F HX  90
KANKAKEE*      LGT RAIN  79  73  82 SW5       29.92S HX  83
WHEELING       MOSUNNY   81  71  71 E9        29.91F HX  85
MORRIS*        HVY RAIN  74  72  91 SE9       29.91S
ROMEOVILLE*    LGT RAIN  82  67  60 S15G24    29.91S HX  84
NORTHERLY ISL    N/A     78  70  76 E10         N/A  HX  80
$$

LMZ740>746-162200-
SOUTHERN LAKE MICHIGAN

STATION/POSITION SKY/WX   TEMP    WIND        PRES    VSBY  WAVE
                          AIR SEA DIR/SP/G                  HT/PER
                          (F)     (DEG/KT/KT) (MB)    (MI)  (FT/S)
SOUTHERN BUOY              73 73   50/  8/  8 1013.6F         1
WILMETTE HARBOR            75 74   80/ 12/ 14   N/A           2/ 2
HARRISON CRIB              77      90/ 15/ 16   N/A
CALUMET HARBOR             78      60/  7/ 11 1012.1F
BURNS HARBOR               87     180/ 13/ 17 1013.2F
MICHIGAN CITY              86     150/  8/ 11   N/A
MICHIGAN CITY 6N           78 76   60/  8/ 12   N/A           1/ 3
ST. JOSEPH                 76 75   60/  8/ 10 1013.0          1
$$

ILZ025>027-034>036-040-047-049-050-058-095>099-162200-
WEST-CENTRAL ILLINOIS

CITY           SKY/WX    TMP DP  RH WIND       PRES   REMARKS
QUINCY         LGT RAIN  80  73  79 S12       29.81F HX  84
GALESBURG*     CLOUDY    82  72  71 S14G20    29.83F HX  86
MACOMB*        CLOUDY    82  73  74 SE10      29.84F HX  87
JACKSONVILLE*  CLOUDY    82  74  77 SE8       29.86F HX  88
PITTSFIELD*    CLOUDY    80  76  86 SE8       29.85F HX  85
$$

ILZ028>032-037-038-041>044-048-051>054-059>061-162200-
CENTRAL ILLINOIS

CITY           SKY/WX    TMP DP  RH WIND       PRES   REMARKS
PONTIAC        CLOUDY    81  79  94 S8G17     29.90F HX  90
BLOOMINGTON    CLOUDY    80  73  79 S18       29.91F HX  84
DECATUR        CLOUDY    79  73  82 S10       29.91F HX  82
PEORIA         CLOUDY    84  75  74 S14       29.85F HX  92
LACON*         MOSUNNY   85  72  65 S10G17    29.85F HX  91
LINCOLN*       CLOUDY    82  75  79 S13       29.89F HX  89
SPRINGFIELD    CLOUDY    84  76  76 S10       29.88F HX  93
TAYLORVILLE    CLOUDY    81  76  83 S9        29.90F HX  88
$$

ILZ033-039-045-046-055>057-062-063-162200-
EAST-CENTRAL ILLINOIS

CITY           SKY/WX    TMP DP  RH WIND       PRES   REMARKS
CHAMPAIGN      CLOUDY    79  74  84 S8        29.93F HX  82
RANTOUL*       CLOUDY    82  73  73 S7        29.93S HX  88
MATTOON        CLOUDY    80  78  94 SE8       29.92F HX  88
PARIS*         MOSUNNY   85  74  71 S8        29.94F HX  92
$$

ILZ079-100>102-162200-
SOUTHWEST ILLINOIS

CITY           SKY/WX    TMP DP  RH WIND       PRES   REMARKS
ALTON          PTSUNNY   84  75  74 SE7       29.88F HX  92
BELLEVILLE     MOSUNNY   87  75  67 S9        29.89S HX  96
CAHOKIA*       TSTM      85  77  77 VRB3      29.88S HX  95
SPARTA*        PTSUNNY   87  77  71 S9G16     29.91R HX  98
$$

ILZ064>066-069>071-074>076-080>082-084>086-088>090-092>094-162200-
SOUTH-CENTRAL ILLINOIS

CITY           SKY/WX    TMP DP  RH WIND       PRES   REMARKS
CARBONDALE     PTSUNNY   88  76  67 S12       29.91F HX  99
CAIRO*         SUNNY     87  77  72 S10G16    29.93S HX  99
EFFINGHAM*     CLOUDY    85  77  77 SE9       29.94S HX  96
MARION         MOSUNNY   90  73  58 S14       29.92F HX  98
MT. VERNON     CLOUDY    88  77  69 S6        29.92F HX 100
CENTRALIA*     PTSUNNY   90  77  65 S14       29.90S HX 102
SALEM*         CLOUDY    87  77  71 SE5       29.91S HX  99
METROPOLIS*    HVY RAIN  92  75  57 SW9       29.93S HX 102
$$

ILZ067-068-072-073-078-083-087-091-162200-
SOUTHEAST ILLINOIS

CITY           SKY/WX    TMP DP  RH WIND       PRES   REMARKS
LAWRENCEVILLE  CLOUDY    86  75  69 SE7       29.94F HX  95
FLORA*         PTSUNNY   87  76  69 S9        29.93S HX  98
FAIRFIELD*     CLOUDY    86  77  73 S5        29.92S HX  97
HARRISBURG*    MOSUNNY   91  75  60 SW10G16   29.92F HX 101
ROBINSON*      MOSUNNY   83  74  76 S7        29.95S HX  89
CARMI*         CLOUDY    88  79  75 SE3       29.92F HX 102
$$

ABBREVIATIONS USED IN REMARKS
   TC - TEMPERATURE IN CELSIUS
  WCI - WIND CHILL INDEX
   HX - HEAT INDEX
  VSB - VISIBILITY
$$




USA.gov is the U.S. government's official web portal to all federal, state and local government web resources and services.